Change the Weather History Date:

Saturday, October 20, 2012

  Actual Average Record
Temperature  
Mean Temperature 60 °F -  
Max Temperature 78 °F 71 °F - ()
Min Temperature 42 °F 46 °F - ()
Degree Days  
Heating Degree Days 5    
Growing Degree Days 10 (Base 50)    
Moisture  
Dew Point 41 °F    
Average Humidity 50    
Maximum Humidity 100    
Minimum Humidity 11    
Precipitation  
Precipitation 0.00 in 0.09 in - ()
Sea Level Pressure  
Sea Level Pressure 29.85 in    
Wind  
Wind Speed 7 mph ()    
Max Wind Speed 22 mph    
Max Gust Speed 29 mph    
Visibility 6.6 miles    
Events Fog    
T = Trace of Precipitation, MM = Missing Value Source: Averaged Metar Reports

Daily Weather History Graph

Daily Weather History Graph

Search for Another Location

Airport or City:

Trip Planner

Search our weather history database for the weather conditions in past years. The results will help you decide how hot, cold, wet, or windy it might be!

Date:

Astronomy

Oct. 20, 2012 Rise Set
Actual Time 6:14 AM AEDT 7:22 PM AEDT
Civil Twilight 5:47 AM AEDT 7:48 PM AEDT
Nautical Twilight 5:16 AM AEDT 8:19 PM AEDT
Astronomical Twilight 4:44 AM AEDT 8:52 PM AEDT
Moon 9:59 AM AEDT (10/20) No Moon Set
Length of Visible Light 14h 00m
Length of Day
13h 08m
Waxing Crescent, 27% of the Moon is Illuminated
Oct 20
Waxing Crescent
Oct 22
First Quarter
Oct 30
Full
Nov 7
Last Quarter
Nov 14
New

Hourly Weather History & Observations

Time (AEDT) Temp. Windchill Dew Point Humidity Pressure Visibility Wind Dir Wind Speed Gust Speed Precip Events Conditions
12:00 AM 54 °F - 48 °F 73% 29.86 in - North 5.8 mph - -  
12:00 AM 55.4 °F - 48.2 °F 77% 29.86 in 6.2 mi North 5.8 mph - N/A   Scattered Clouds
12:30 AM 51.8 °F - 48.2 °F 88% 29.86 in 6.2 mi North 1.2 mph - N/A   Unknown
1:00 AM 51.8 °F - 46.4 °F 82% 29.86 in 6.2 mi Calm Calm - N/A   Unknown
1:30 AM 51.8 °F - 46.4 °F 82% 29.86 in 6.2 mi North 4.6 mph - N/A   Unknown
2:00 AM 50 °F - 46 °F 81% 29.83 in - Calm Calm - -  
2:00 AM 50.0 °F - 46.4 °F 87% 29.83 in 6.2 mi Calm Calm - N/A   Unknown
2:30 AM 48.2 °F - 46.4 °F 93% 29.83 in 6.2 mi Calm Calm - N/A   Unknown
3:00 AM 51.8 °F - 46.4 °F 82% 29.83 in 6.2 mi SE 3.5 mph - N/A   Unknown
3:30 AM 48.2 °F - 44.6 °F 87% 29.80 in 6.2 mi Calm Calm - N/A   Unknown
4:00 AM 46.4 °F 45.2 °F 44.6 °F 93% 29.80 in 6.2 mi East 3.5 mph - N/A   Unknown
4:30 AM 48.2 °F - 44.6 °F 87% 29.80 in 6.2 mi East 3.5 mph - N/A   Unknown
5:00 AM 45 °F - 43 °F 88% 29.79 in - Calm Calm - -  
5:00 AM 44.6 °F - 42.8 °F 93% 29.80 in 6.2 mi Calm Calm - N/A   Unknown
5:30 AM 44.6 °F 43.1 °F 42.8 °F 93% 29.80 in 6.2 mi NNW 3.5 mph - N/A   Unknown
6:00 AM 45 °F - 44 °F 92% 29.81 in - East 4.6 mph - -  
6:00 AM 44.6 °F 42.2 °F 42.8 °F 93% 29.83 in 6.2 mi East 4.6 mph - N/A Fog Shallow Fog
6:30 AM 42.8 °F 41.1 °F 41.0 °F 93% 29.83 in 6.2 mi NE 3.5 mph - N/A Fog Shallow Fog
7:00 AM 44.6 °F 43.1 °F 44.6 °F 100% 29.83 in - North 3.5 mph - N/A   Clear
7:30 AM 50.0 °F - 46.4 °F 87% 29.83 in - Calm Calm - N/A   Clear
8:00 AM 54 °F - 49 °F 77% 29.84 in - Calm Calm - -  
8:00 AM 53.6 °F - 48.2 °F 82% 29.86 in - Calm Calm - N/A   Clear
8:30 AM 57.2 °F - 48.2 °F 72% 29.86 in - NE 3.5 mph - N/A   Clear
9:00 AM 60 °F - 49 °F 59% 29.86 in 16 mi WNW 3.5 mph - -   Partly Cloudy
9:00 AM 60.8 °F - 50.0 °F 68% 29.86 in - WNW 3.5 mph - N/A   Clear
9:30 AM 64.4 °F - 51.8 °F 64% 29.86 in 6.2 mi NNW 4.6 mph - N/A   Unknown
10:00 AM 69.8 °F - 50.0 °F 49% 29.86 in - NNW 9.2 mph - N/A   Clear
10:30 AM 71.6 °F - 50.0 °F 46% 29.86 in - NNW 8.1 mph - N/A   Clear
11:00 AM 75 °F - 46 °F 24% 29.84 in - WNW 12.7 mph - -  
11:00 AM 75.2 °F - 46.4 °F 36% 29.86 in - WNW 12.7 mph - N/A   Clear
11:30 AM 75.2 °F - 44.6 °F 34% 29.86 in - NW 17.3 mph - N/A   Clear
12:00 PM 75 °F - 46 °F 25% 29.83 in - North 13.8 mph - -  
12:00 PM 75.2 °F - 46.4 °F 36% 29.83 in - North 13.8 mph - N/A   Clear
12:30 PM 77.0 °F - 39.2 °F 26% 29.83 in - NW 16.1 mph - N/A   Clear
1:00 PM 77.0 °F - 39.2 °F 26% 29.83 in - NW 17.3 mph - N/A   Clear
1:24 PM 77.0 °F - 39.2 °F 26% 29.83 in - WNW 17.3 mph 28.8 mph N/A   Clear
1:30 PM 77.0 °F - 39.2 °F 26% 29.83 in - WNW 19.6 mph - N/A   Clear
2:00 PM 77 °F - 42 °F 19% 29.83 in - WNW 19.6 mph - -  
2:00 PM 77.0 °F - 42.8 °F 29% 29.83 in - WNW 19.6 mph - N/A   Clear
2:30 PM 77.0 °F - 42.8 °F 29% 29.83 in - WNW 19.6 mph - N/A   Clear
3:00 PM 78 °F - 37 °F 14% 29.83 in - WNW 20.7 mph - -  
3:00 PM 77.0 °F - 37.4 °F 24% 29.83 in - WNW 20.7 mph - N/A   Clear
3:30 PM 77.0 °F - 32.0 °F 19% 29.83 in - WNW 21.9 mph - N/A   Clear
4:00 PM 77.0 °F - 33.8 °F 21% 29.83 in - WNW 20.7 mph - N/A   Clear
4:30 PM 77.0 °F - 35.6 °F 22% 29.83 in - WNW 19.6 mph - N/A   Clear
5:00 PM 76 °F - 31 °F 11% 29.83 in - WNW 16.1 mph - -  
5:00 PM 77.0 °F - 32.0 °F 19% 29.83 in - WNW 16.1 mph - N/A   Clear
5:30 PM 75.2 °F - 32.0 °F 21% 29.83 in - NW 18.4 mph - N/A   Clear
6:00 PM 73 °F - 31 °F 12% 29.84 in - WNW 13.8 mph - -  
6:00 PM 73.4 °F - 30.2 °F 20% 29.83 in - WNW 13.8 mph - N/A   Clear
6:30 PM 71.6 °F - 33.8 °F 25% 29.86 in 6.2 mi NW 13.8 mph - N/A   Unknown
7:00 PM 69.8 °F - 26.6 °F 20% 29.86 in 6.2 mi WNW 18.4 mph - N/A   Unknown
7:30 PM 66.2 °F - 28.4 °F 24% 29.89 in 6.2 mi WNW 15.0 mph - N/A   Unknown
8:00 PM 66 °F - 29 °F 15% 29.88 in - WNW 13.8 mph - -  
8:00 PM 66.2 °F - 28.4 °F 24% 29.89 in 6.2 mi WNW 13.8 mph - N/A   Unknown
8:30 PM 64.4 °F - 33.8 °F 32% 29.92 in 6.2 mi West 10.4 mph - N/A   Unknown
9:00 PM 65 °F - 36 °F 22% 29.92 in - West 11.5 mph - -  
9:00 PM 64.4 °F - 35.6 °F 34% 29.92 in 6.2 mi West 11.5 mph - N/A   Unknown
9:30 PM 64.4 °F - 35.6 °F 34% 29.95 in 6.2 mi WNW 13.8 mph - N/A   Unknown
10:00 PM 64.4 °F - 37.4 °F 37% 29.95 in 6.2 mi WNW 13.8 mph - N/A   Unknown
10:30 PM 62.6 °F - 37.4 °F 39% 29.95 in 6.2 mi West 6.9 mph - N/A   Unknown
11:00 PM 61 °F - 36 °F 28% 29.95 in - WNW 9.2 mph - -  
11:00 PM 60.8 °F - 35.6 °F 39% 29.95 in 6.2 mi WNW 9.2 mph - N/A   Unknown
11:30 PM 59.0 °F - 37.4 °F 45% 29.98 in 6.2 mi WNW 10.4 mph - N/A   Unknown